Lifter — V2DD4 — position and weather

sailwx.info

Track history (hours):
 
Tides and Currents Weather Stations Pressure Air Temp Water Temp Dewpoint Dewpoint Depression Visibility Wind Speed Wind Dir Waves Ship Positions

Lifter

Last reported at 2014-Nov-23 04:33 UTC. Time now 2014-Nov-24 08:24 UTC.
Position N 47°56' W 005°32'.

Length 118 m; draft 7.5 m.

Type: Ship. MMSI: 305175000.

Date/timePositionNaut miles runAvg speedWind from/ knotsBaromVisibWave heightAir tempDewpointWater temp
2014-Nov-23 04:33N 47°56' W 005°32'1211.7
2014-Nov-23 03:33N 48°07' W 005°38'26010.6
2014-Nov-22 03:07N 50°31' W 000°06'813.7
2014-Nov-22 02:31N 50°34' E 000°06'1313.6
2014-Nov-22 01:33N 50°37' E 000°26'1312.8
2014-Nov-22 00:33N 50°42' E 000°44'1211.7
2014-Nov-21 23:33N 50°50' E 000°59'1110.7
2014-Nov-21 22:32N 50°57' E 001°12'1010.6
2014-Nov-21 21:33N 51°03' E 001°25'1111.0
2014-Nov-21 20:34N 51°05' E 001°42'1313.1
2014-Nov-21 19:33N 51°03' E 002°03'11 9.7
2014-Nov-21 18:24N 51°03' E 002°20'1 1.1
2014-Nov-21 17:31N 51°03' E 002°19'2 2.1
2014-Nov-21 16:33N 51°02' E 002°16'0 0.0
2014-Nov-21 15:33N 51°02' E 002°16'0 0.0
2014-Nov-21 14:27N 51°02' E 002°16'0 0.0
2014-Nov-21 13:33N 51°02' E 002°16'0 0.0
2014-Nov-21 12:33N 51°02' E 002°16'0 0.0
2014-Nov-21 10:27N 51°02' E 002°16'0 0.0
2014-Nov-21 09:25N 51°02' E 002°16'0 0.0
2014-Nov-21 08:27N 51°02' E 002°16'0 0.0
2014-Nov-21 07:15N 51°02' E 002°16'1 1.0
2014-Nov-21 06:30N 51°03' E 002°17'3 2.6
2014-Nov-21 05:32N 51°03' E 002°21'6 6.0
2014-Nov-21 04:29N 51°03' E 002°10'1210.9
2014-Nov-21 03:21N 51°02' E 001°51'4 5.2
2014-Nov-21 02:33N 51°04' E 001°45'6 6.3
2014-Nov-21 01:34N 51°09' E 001°42'8 7.5
2014-Nov-21 00:33N 51°16' E 001°49'1110.9
2014-Nov-20 23:33N 51°24' E 001°59'1211.6
2014-Nov-20 22:33N 51°21' E 002°17'1211.7
2014-Nov-20 21:29N 51°23' E 002°37'1212.1
2014-Nov-20 20:31N 51°23' E 002°56'1212.7
2014-Nov-20 19:33N 51°25' E 003°15'1312.6
2014-Nov-20 18:33N 51°26' E 003°35'1110.7
2014-Nov-20 17:33N 51°21' E 003°50'10 9.8
2014-Nov-20 16:33N 51°22' E 004°06'7 7.4
2014-Nov-20 15:33N 51°21' E 004°17'1 0.6
2014-Nov-20 14:33N 51°20' E 004°18'5 5.1
2014-Nov-20 13:33N 51°16' E 004°21'2 1.8
2014-Nov-20 12:31N 51°15' E 004°24'0 0.0
2014-Nov-20 11:31N 51°15' E 004°24'0 0.0
2014-Nov-20 10:31N 51°15' E 004°24'0 0.0
2014-Nov-20 09:31N 51°15' E 004°24'0 0.0
2014-Nov-20 08:31N 51°15' E 004°24'0 0.0
2014-Nov-20 07:31N 51°15' E 004°24'0 0.0
2014-Nov-20 06:31N 51°15' E 004°24'0 0.0
2014-Nov-20 05:31N 51°15' E 004°24'0 0.0
2014-Nov-20 04:31N 51°15' E 004°24'0 0.0
2014-Nov-20 03:31N 51°15' E 004°24'0 0.0
2014-Nov-20 02:31N 51°15' E 004°24'0 0.0
2014-Nov-20 01:31N 51°15' E 004°24'0 0.0
2014-Nov-20 00:31N 51°15' E 004°24'0 0.0
2014-Nov-19 23:31N 51°15' E 004°24'0 0.0
2014-Nov-19 22:31N 51°15' E 004°24'0 0.0
2014-Nov-19 21:31N 51°15' E 004°24'0 0.0
2014-Nov-19 20:31N 51°15' E 004°24'0 0.0
2014-Nov-19 19:31N 51°15' E 004°24'0 0.0
2014-Nov-19 18:31N 51°15' E 004°24'0 0.0
2014-Nov-19 17:31N 51°15' E 004°24'0 0.0
2014-Nov-19 16:31N 51°15' E 004°24'0 0.0
2014-Nov-19 15:31N 51°15' E 004°24'0 0.0
2014-Nov-19 14:31N 51°15' E 004°24'0 0.0
2014-Nov-19 13:31N 51°15' E 004°24'0 0.0
2014-Nov-19 12:31N 51°15' E 004°24'0 0.0
2014-Nov-19 11:31N 51°15' E 004°24'0 0.0
2014-Nov-19 10:31N 51°15' E 004°24'0 0.0
2014-Nov-19 09:31N 51°15' E 004°24'0 0.0
2014-Nov-19 08:31N 51°15' E 004°24'0 0.0
2014-Nov-19 07:31N 51°15' E 004°24'0 0.0
2014-Nov-19 06:31N 51°15' E 004°24'0 0.0
2014-Nov-19 05:31N 51°15' E 004°24'0 0.0
2014-Nov-19 04:31N 51°15' E 004°24'0 0.0
2014-Nov-19 03:31N 51°15' E 004°24'0 0.0
2014-Nov-19 02:31N 51°15' E 004°24'0 0.0
2014-Nov-19 01:31N 51°15' E 004°24'0 0.0
2014-Nov-19 00:31N 51°15' E 004°24'0 0.0
2014-Nov-18 23:31N 51°15' E 004°24'0 0.0
2014-Nov-18 22:31N 51°15' E 004°24'0 0.0
2014-Nov-18 21:31N 51°15' E 004°24'0 0.0
2014-Nov-18 20:31N 51°15' E 004°24'0 0.0
2014-Nov-18 19:31N 51°15' E 004°24'0 0.0
2014-Nov-18 18:31N 51°15' E 004°24'0 0.0
2014-Nov-18 17:31N 51°15' E 004°24'0 0.0
2014-Nov-18 16:31N 51°15' E 004°24'0 0.0
2014-Nov-18 15:31N 51°15' E 004°24'0 0.0
2014-Nov-18 14:31N 51°15' E 004°24'0 0.0
2014-Nov-18 13:31N 51°15' E 004°24'0 0.0
2014-Nov-18 12:31N 51°15' E 004°24'0 0.0
2014-Nov-18 11:31N 51°15' E 004°24'0 0.0
2014-Nov-18 10:31N 51°15' E 004°24'0 0.0
2014-Nov-18 09:31N 51°15' E 004°24'0 0.0
2014-Nov-18 08:31N 51°15' E 004°24'0 0.0
2014-Nov-18 07:31N 51°15' E 004°24'0 0.0
2014-Nov-18 06:31N 51°15' E 004°24'0 0.0
2014-Nov-18 05:31N 51°15' E 004°24'0 0.0
2014-Nov-18 04:31N 51°15' E 004°24'0 0.0
2014-Nov-18 03:33N 51°15' E 004°24'0 0.0
2014-Nov-18 02:33N 51°15' E 004°24'0 0.0
2014-Nov-18 01:33N 51°15' E 004°24'0 0.0
2014-Nov-18 00:33N 51°15' E 004°24'0 0.0
2014-Nov-17 23:33N 51°15' E 004°24'0 0.0
2014-Nov-17 22:33N 51°15' E 004°24'0 0.0
2014-Nov-17 21:33N 51°15' E 004°24'0 0.0
2014-Nov-17 20:33N 51°15' E 004°24'0 0.0
2014-Nov-17 19:33N 51°15' E 004°24'1 0.8
2014-Nov-17 18:33N 51°16' E 004°23'1 0.5
2014-Nov-17 17:31N 51°16' E 004°22'0 0.0
2014-Nov-17 16:31N 51°16' E 004°22'0 0.0
2014-Nov-17 15:31N 51°16' E 004°22'0 0.0
2014-Nov-17 14:31N 51°16' E 004°22'0 0.0
2014-Nov-17 13:31N 51°16' E 004°22'0 0.0
2014-Nov-17 12:31N 51°16' E 004°22'0 0.0
2014-Nov-17 11:31N 51°16' E 004°22'0 0.0
2014-Nov-17 10:31N 51°16' E 004°22'0 0.0
2014-Nov-17 09:31N 51°16' E 004°22'0 0.0
2014-Nov-17 08:28N 51°16' E 004°22'0 0.0
2014-Nov-17 07:31N 51°16' E 004°22'0 0.0
2014-Nov-17 06:31N 51°16' E 004°22'0 0.0
2014-Nov-17 05:31N 51°16' E 004°22'0 0.0
2014-Nov-17 04:31N 51°16' E 004°22'0 0.0
2014-Nov-17 03:31N 51°16' E 004°22'0 0.0
2014-Nov-17 02:31N 51°16' E 004°22'0 0.0
2014-Nov-17 01:31N 51°16' E 004°22'0 0.0
2014-Nov-17 00:31N 51°16' E 004°22'0 0.0
2014-Nov-16 23:31N 51°16' E 004°22'0 0.0
2014-Nov-16 22:31N 51°16' E 004°22'0 0.0
2014-Nov-16 21:31N 51°16' E 004°22'0 0.0
2014-Nov-16 20:31N 51°16' E 004°22'0 0.0
2014-Nov-16 19:31N 51°16' E 004°22'0 0.0
2014-Nov-16 18:31N 51°16' E 004°22'0 0.0
2014-Nov-16 17:31N 51°16' E 004°22'0 0.0
2014-Nov-16 16:31N 51°16' E 004°22'0 0.0
2014-Nov-16 15:31N 51°16' E 004°22'0 0.2
2014-Nov-16 14:31N 51°16' E 004°23'0 0.0
2014-Nov-16 13:33N 51°16' E 004°23'0 0.0
2014-Nov-16 12:33N 51°16' E 004°23'0 0.0
2014-Nov-16 11:33N 51°16' E 004°23'0 0.0
2014-Nov-16 10:33N 51°16' E 004°23'0 0.0
2014-Nov-16 09:33N 51°16' E 004°23'0 0.0
2014-Nov-16 08:33N 51°16' E 004°23'0 0.0
2014-Nov-16 07:33N 51°16' E 004°23'0 0.0
2014-Nov-16 06:33N 51°16' E 004°23'0 0.0
2014-Nov-16 05:33N 51°16' E 004°23'0 0.0
2014-Nov-16 04:33N 51°16' E 004°23'0 0.0
2014-Nov-16 03:33N 51°16' E 004°23'0 0.0
2014-Nov-16 02:33N 51°16' E 004°23'0 0.0
2014-Nov-16 01:33N 51°16' E 004°23'0 0.0
2014-Nov-16 00:30N 51°16' E 004°23'0 0.0
2014-Nov-15 23:33N 51°16' E 004°23'0 0.0
2014-Nov-15 22:33N 51°16' E 004°23'0 0.0
2014-Nov-15 21:33N 51°16' E 004°23'0 0.0
2014-Nov-15 20:33N 51°16' E 004°23'0 0.0
2014-Nov-15 19:33N 51°16' E 004°23'0 0.0
2014-Nov-15 18:33N 51°16' E 004°23'0 0.0
2014-Nov-15 17:33N 51°16' E 004°23'0 0.0
2014-Nov-15 16:33N 51°16' E 004°23'0 0.0
2014-Nov-15 15:33N 51°16' E 004°23'0 0.0
2014-Nov-15 14:33N 51°16' E 004°23'0 0.0
2014-Nov-15 13:33N 51°16' E 004°23'0 0.0
2014-Nov-15 12:33N 51°16' E 004°23'0 0.0
2014-Nov-15 11:33N 51°16' E 004°23'0 0.0
2014-Nov-15 10:33N 51°16' E 004°23'0 0.0
2014-Nov-15 09:33N 51°16' E 004°23'0 0.0
2014-Nov-15 08:33N 51°16' E 004°23'0 0.0
2014-Nov-15 07:33N 51°16' E 004°23'0 0.0
2014-Nov-15 06:33N 51°16' E 004°23'0 0.0
2014-Nov-15 05:33N 51°16' E 004°23'0 0.0
2014-Nov-15 04:33N 51°16' E 004°23'0 0.0
2014-Nov-15 03:33N 51°16' E 004°23'0 0.3
2014-Nov-15 02:33N 51°16' E 004°22'5 5.4
2014-Nov-15 01:34N 51°20' E 004°18'1 0.8
2014-Nov-15 00:33N 51°21' E 004°17'1 1.0
2014-Nov-14 23:33N 51°21' E 004°15'7 7.4
2014-Nov-14 22:33N 51°22' E 004°04'5 5.2
2014-Nov-14 21:33N 51°22' E 003°56'8 8.4
2014-Nov-14 20:33N 51°24' E 003°42'8 8.2
2014-Nov-14 19:33N 51°25' E 003°29'8 8.3
2014-Nov-14 18:33N 51°24' E 003°16'1110.7
2014-Nov-14 17:33N 51°23' E 002°59'1211.2
2014-Nov-14 16:27N 51°22' E 002°39'6 6.7
2014-Nov-14 15:33N 51°22' E 002°30'7 6.1
2014-Nov-14 14:28N 51°19' E 002°20'2111.1
2014-Nov-14 12:33N 51°08' E 001°51'1312.7
2014-Nov-14 11:33N 50°60' E 001°36'5811.3
2014-Nov-14 06:26N 50°24' E 000°23'  
Track history (hours):
 
Tides and Currents Weather Stations Pressure Air Temp Water Temp Dewpoint Dewpoint Depression Visibility Wind Speed Wind Dir Waves Ship Positions

Lifter

Last reported at 2014-Nov-23 04:33 UTC. Time now 2014-Nov-24 08:24 UTC.
Position N 47°56' W 005°32'.

Length 118 m; draft 7.5 m.

Type: Ship. MMSI: 305175000.

Date/timePositionNaut miles runAvg speedWind from/ knotsBaromVisibWave heightAir tempDewpointWater temp
2014-Nov-23 04:33N 47°56' W 005°32'1211.7
2014-Nov-23 03:33N 48°07' W 005°38'26010.6
2014-Nov-22 03:07N 50°31' W 000°06'813.7
2014-Nov-22 02:31N 50°34' E 000°06'1313.6
2014-Nov-22 01:33N 50°37' E 000°26'1312.8
2014-Nov-22 00:33N 50°42' E 000°44'1211.7
2014-Nov-21 23:33N 50°50' E 000°59'1110.7
2014-Nov-21 22:32N 50°57' E 001°12'1010.6
2014-Nov-21 21:33N 51°03' E 001°25'1111.0
2014-Nov-21 20:34N 51°05' E 001°42'1313.1
2014-Nov-21 19:33N 51°03' E 002°03'11 9.7
2014-Nov-21 18:24N 51°03' E 002°20'1 1.1
2014-Nov-21 17:31N 51°03' E 002°19'2 2.1
2014-Nov-21 16:33N 51°02' E 002°16'0 0.0
2014-Nov-21 15:33N 51°02' E 002°16'0 0.0
2014-Nov-21 14:27N 51°02' E 002°16'0 0.0
2014-Nov-21 13:33N 51°02' E 002°16'0 0.0
2014-Nov-21 12:33N 51°02' E 002°16'0 0.0
2014-Nov-21 10:27N 51°02' E 002°16'0 0.0
2014-Nov-21 09:25N 51°02' E 002°16'0 0.0
2014-Nov-21 08:27N 51°02' E 002°16'0 0.0
2014-Nov-21 07:15N 51°02' E 002°16'1 1.0
2014-Nov-21 06:30N 51°03' E 002°17'3 2.6
2014-Nov-21 05:32N 51°03' E 002°21'6 6.0
2014-Nov-21 04:29N 51°03' E 002°10'1210.9
2014-Nov-21 03:21N 51°02' E 001°51'4 5.2
2014-Nov-21 02:33N 51°04' E 001°45'6 6.3
2014-Nov-21 01:34N 51°09' E 001°42'8 7.5
2014-Nov-21 00:33N 51°16' E 001°49'1110.9
2014-Nov-20 23:33N 51°24' E 001°59'1211.6
2014-Nov-20 22:33N 51°21' E 002°17'1211.7
2014-Nov-20 21:29N 51°23' E 002°37'1212.1
2014-Nov-20 20:31N 51°23' E 002°56'1212.7
2014-Nov-20 19:33N 51°25' E 003°15'1312.6
2014-Nov-20 18:33N 51°26' E 003°35'1110.7
2014-Nov-20 17:33N 51°21' E 003°50'10 9.8
2014-Nov-20 16:33N 51°22' E 004°06'7 7.4
2014-Nov-20 15:33N 51°21' E 004°17'1 0.6
2014-Nov-20 14:33N 51°20' E 004°18'5 5.1
2014-Nov-20 13:33N 51°16' E 004°21'2 1.8
2014-Nov-20 12:31N 51°15' E 004°24'0 0.0
2014-Nov-20 11:31N 51°15' E 004°24'0 0.0
2014-Nov-20 10:31N 51°15' E 004°24'0 0.0
2014-Nov-20 09:31N 51°15' E 004°24'0 0.0
2014-Nov-20 08:31N 51°15' E 004°24'0 0.0
2014-Nov-20 07:31N 51°15' E 004°24'0 0.0
2014-Nov-20 06:31N 51°15' E 004°24'0 0.0
2014-Nov-20 05:31N 51°15' E 004°24'0 0.0
2014-Nov-20 04:31N 51°15' E 004°24'0 0.0
2014-Nov-20 03:31N 51°15' E 004°24'0 0.0
2014-Nov-20 02:31N 51°15' E 004°24'0 0.0
2014-Nov-20 01:31N 51°15' E 004°24'0 0.0
2014-Nov-20 00:31N 51°15' E 004°24'0 0.0
2014-Nov-19 23:31N 51°15' E 004°24'0 0.0
2014-Nov-19 22:31N 51°15' E 004°24'0 0.0
2014-Nov-19 21:31N 51°15' E 004°24'0 0.0
2014-Nov-19 20:31N 51°15' E 004°24'0 0.0
2014-Nov-19 19:31N 51°15' E 004°24'0 0.0
2014-Nov-19 18:31N 51°15' E 004°24'0 0.0
2014-Nov-19 17:31N 51°15' E 004°24'0 0.0
2014-Nov-19 16:31N 51°15' E 004°24'0 0.0
2014-Nov-19 15:31N 51°15' E 004°24'0 0.0
2014-Nov-19 14:31N 51°15' E 004°24'0 0.0
2014-Nov-19 13:31N 51°15' E 004°24'0 0.0
2014-Nov-19 12:31N 51°15' E 004°24'0 0.0
2014-Nov-19 11:31N 51°15' E 004°24'0 0.0
2014-Nov-19 10:31N 51°15' E 004°24'0 0.0
2014-Nov-19 09:31N 51°15' E 004°24'0 0.0
2014-Nov-19 08:31N 51°15' E 004°24'0 0.0
2014-Nov-19 07:31N 51°15' E 004°24'0 0.0
2014-Nov-19 06:31N 51°15' E 004°24'0 0.0
2014-Nov-19 05:31N 51°15' E 004°24'0 0.0
2014-Nov-19 04:31N 51°15' E 004°24'0 0.0
2014-Nov-19 03:31N 51°15' E 004°24'0 0.0
2014-Nov-19 02:31N 51°15' E 004°24'0 0.0
2014-Nov-19 01:31N 51°15' E 004°24'0 0.0
2014-Nov-19 00:31N 51°15' E 004°24'0 0.0
2014-Nov-18 23:31N 51°15' E 004°24'0 0.0
2014-Nov-18 22:31N 51°15' E 004°24'0 0.0
2014-Nov-18 21:31N 51°15' E 004°24'0 0.0
2014-Nov-18 20:31N 51°15' E 004°24'0 0.0
2014-Nov-18 19:31N 51°15' E 004°24'0 0.0
2014-Nov-18 18:31N 51°15' E 004°24'0 0.0
2014-Nov-18 17:31N 51°15' E 004°24'0 0.0
2014-Nov-18 16:31N 51°15' E 004°24'0 0.0
2014-Nov-18 15:31N 51°15' E 004°24'0 0.0
2014-Nov-18 14:31N 51°15' E 004°24'0 0.0
2014-Nov-18 13:31N 51°15' E 004°24'0 0.0
2014-Nov-18 12:31N 51°15' E 004°24'0 0.0
2014-Nov-18 11:31N 51°15' E 004°24'0 0.0
2014-Nov-18 10:31N 51°15' E 004°24'0 0.0
2014-Nov-18 09:31N 51°15' E 004°24'0 0.0
2014-Nov-18 08:31N 51°15' E 004°24'0 0.0
2014-Nov-18 07:31N 51°15' E 004°24'0 0.0
2014-Nov-18 06:31N 51°15' E 004°24'0 0.0
2014-Nov-18 05:31N 51°15' E 004°24'0 0.0
2014-Nov-18 04:31N 51°15' E 004°24'0 0.0
2014-Nov-18 03:33N 51°15' E 004°24'0 0.0
2014-Nov-18 02:33N 51°15' E 004°24'0 0.0
2014-Nov-18 01:33N 51°15' E 004°24'0 0.0
2014-Nov-18 00:33N 51°15' E 004°24'0 0.0
2014-Nov-17 23:33N 51°15' E 004°24'0 0.0
2014-Nov-17 22:33N 51°15' E 004°24'0 0.0
2014-Nov-17 21:33N 51°15' E 004°24'0 0.0
2014-Nov-17 20:33N 51°15' E 004°24'0 0.0
2014-Nov-17 19:33N 51°15' E 004°24'1 0.8
2014-Nov-17 18:33N 51°16' E 004°23'1 0.5
2014-Nov-17 17:31N 51°16' E 004°22'0 0.0
2014-Nov-17 16:31N 51°16' E 004°22'0 0.0
2014-Nov-17 15:31N 51°16' E 004°22'0 0.0
2014-Nov-17 14:31N 51°16' E 004°22'0 0.0
2014-Nov-17 13:31N 51°16' E 004°22'0 0.0
2014-Nov-17 12:31N 51°16' E 004°22'0 0.0
2014-Nov-17 11:31N 51°16' E 004°22'0 0.0
2014-Nov-17 10:31N 51°16' E 004°22'0 0.0
2014-Nov-17 09:31N 51°16' E 004°22'0 0.0
2014-Nov-17 08:28N 51°16' E 004°22'0 0.0
2014-Nov-17 07:31N 51°16' E 004°22'0 0.0
2014-Nov-17 06:31N 51°16' E 004°22'0 0.0
2014-Nov-17 05:31N 51°16' E 004°22'0 0.0
2014-Nov-17 04:31N 51°16' E 004°22'0 0.0
2014-Nov-17 03:31N 51°16' E 004°22'0 0.0
2014-Nov-17 02:31N 51°16' E 004°22'0 0.0
2014-Nov-17 01:31N 51°16' E 004°22'0 0.0
2014-Nov-17 00:31N 51°16' E 004°22'0 0.0
2014-Nov-16 23:31N 51°16' E 004°22'0 0.0
2014-Nov-16 22:31N 51°16' E 004°22'0 0.0
2014-Nov-16 21:31N 51°16' E 004°22'0 0.0
2014-Nov-16 20:31N 51°16' E 004°22'0 0.0
2014-Nov-16 19:31N 51°16' E 004°22'0 0.0
2014-Nov-16 18:31N 51°16' E 004°22'0 0.0
2014-Nov-16 17:31N 51°16' E 004°22'0 0.0
2014-Nov-16 16:31N 51°16' E 004°22'0 0.0
2014-Nov-16 15:31N 51°16' E 004°22'0 0.2
2014-Nov-16 14:31N 51°16' E 004°23'0 0.0
2014-Nov-16 13:33N 51°16' E 004°23'0 0.0
2014-Nov-16 12:33N 51°16' E 004°23'0 0.0
2014-Nov-16 11:33N 51°16' E 004°23'0 0.0
2014-Nov-16 10:33N 51°16' E 004°23'0 0.0
2014-Nov-16 09:33N 51°16' E 004°23'0 0.0
2014-Nov-16 08:33N 51°16' E 004°23'0 0.0
2014-Nov-16 07:33N 51°16' E 004°23'0 0.0
2014-Nov-16 06:33N 51°16' E 004°23'0 0.0
2014-Nov-16 05:33N 51°16' E 004°23'0 0.0
2014-Nov-16 04:33N 51°16' E 004°23'0 0.0
2014-Nov-16 03:33N 51°16' E 004°23'0 0.0
2014-Nov-16 02:33N 51°16' E 004°23'0 0.0
2014-Nov-16 01:33N 51°16' E 004°23'0 0.0
2014-Nov-16 00:30N 51°16' E 004°23'0 0.0
2014-Nov-15 23:33N 51°16' E 004°23'0 0.0
2014-Nov-15 22:33N 51°16' E 004°23'0 0.0
2014-Nov-15 21:33N 51°16' E 004°23'0 0.0
2014-Nov-15 20:33N 51°16' E 004°23'0 0.0
2014-Nov-15 19:33N 51°16' E 004°23'0 0.0
2014-Nov-15 18:33N 51°16' E 004°23'0 0.0
2014-Nov-15 17:33N 51°16' E 004°23'0 0.0
2014-Nov-15 16:33N 51°16' E 004°23'0 0.0
2014-Nov-15 15:33N 51°16' E 004°23'0 0.0
2014-Nov-15 14:33N 51°16' E 004°23'0 0.0
2014-Nov-15 13:33N 51°16' E 004°23'0 0.0
2014-Nov-15 12:33N 51°16' E 004°23'0 0.0
2014-Nov-15 11:33N 51°16' E 004°23'0 0.0
2014-Nov-15 10:33N 51°16' E 004°23'0 0.0
2014-Nov-15 09:33N 51°16' E 004°23'0 0.0
2014-Nov-15 08:33N 51°16' E 004°23'0 0.0
2014-Nov-15 07:33N 51°16' E 004°23'0 0.0
2014-Nov-15 06:33N 51°16' E 004°23'0 0.0
2014-Nov-15 05:33N 51°16' E 004°23'0 0.0
2014-Nov-15 04:33N 51°16' E 004°23'0 0.0
2014-Nov-15 03:33N 51°16' E 004°23'0 0.3
2014-Nov-15 02:33N 51°16' E 004°22'5 5.4
2014-Nov-15 01:34N 51°20' E 004°18'1 0.8
2014-Nov-15 00:33N 51°21' E 004°17'1 1.0
2014-Nov-14 23:33N 51°21' E 004°15'7 7.4
2014-Nov-14 22:33N 51°22' E 004°04'5 5.2
2014-Nov-14 21:33N 51°22' E 003°56'8 8.4
2014-Nov-14 20:33N 51°24' E 003°42'8 8.2
2014-Nov-14 19:33N 51°25' E 003°29'8 8.3
2014-Nov-14 18:33N 51°24' E 003°16'1110.7
2014-Nov-14 17:33N 51°23' E 002°59'1211.2
2014-Nov-14 16:27N 51°22' E 002°39'6 6.7
2014-Nov-14 15:33N 51°22' E 002°30'7 6.1
2014-Nov-14 14:28N 51°19' E 002°20'2111.1
2014-Nov-14 12:33N 51°08' E 001°51'1312.7
2014-Nov-14 11:33N 50°60' E 001°36'5811.3
2014-Nov-14 06:26N 50°24' E 000°23'  

Dump ship's entire track history